,,,PA_Meas_PMT16A,,PR_Meas_QMR101_102,,RH_Meas_QMH101,,SR_Meas_QMS101,,TA_Meas_QMH101,,GenWind,,GenWind,
date,time,status,PA,status,PR,status,RH,status,SR,status,TA,status,DirAvg,status,SpdAvg,
2009-08-26, 00:00:05,VALID,1001.23,VALID,0,VALID,79.554,VALID,0,VALID,24.7532,VALID,129,VALID,1.83828,
2009-08-26, 00:01:05,VALID,1001.2,VALID,0,VALID,79.6609,VALID,0.112286,VALID,24.7356,VALID,129,VALID,1.69961,
2009-08-26, 00:02:05,VALID,1001.19,VALID,0,VALID,79.699,VALID,0.112286,VALID,24.6946,VALID,130,VALID,1.88828,
2009-08-26, 00:03:05,VALID,1001.17,VALID,0,VALID,79.6609,VALID,0,VALID,24.6946,VALID,130,VALID,1.56914,
2009-08-26, 00:04:05,VALID,1001.14,VALID,0,VALID,79.7143,VALID,0,VALID,24.6946,VALID,131,VALID,1.88828,
2009-08-26, 00:05:05,VALID,1001.16,VALID,0,VALID,79.8058,VALID,0,VALID,24.6946,VALID,132,VALID,1.84609,
2009-08-26, 00:06:05,VALID,1001.14,VALID,0,VALID,79.5312,VALID,0,VALID,24.6751,VALID,129,VALID,2.15547,
2009-08-26, 00:07:05,VALID,1001.11,VALID,0,VALID,79.1421,VALID,0,VALID,24.6965,VALID,132,VALID,2.05508,
2009-08-26, 00:08:05,VALID,1001.09,VALID,0,VALID,79.287,VALID,0,VALID,24.6946,VALID,137,VALID,1.99766,
2009-08-26, 00:09:05,VALID,1001.07,VALID,0,VALID,79.2565,VALID,0,VALID,24.6946,VALID,138,VALID,1.68359,
2009-08-26, 00:10:05,VALID,1001.03,VALID,0,VALID,79.2641,VALID,0,VALID,24.6965,VALID,134,VALID,1.92578,
2009-08-26, 00:11:05,VALID,1001.03,VALID,0,VALID,79.6914,VALID,0,VALID,24.6556,VALID,142,VALID,1.22148,
2009-08-26, 00:12:05,VALID,1001.02,VALID,0,VALID,79.5922,VALID,0,VALID,24.6361,VALID,138,VALID,1.48867,
2009-08-26, 00:13:05,VALID,1001,VALID,0,VALID,79.7906,VALID,0,VALID,24.6361,VALID,129,VALID,1.25352,
2009-08-26, 00:14:05,VALID,1000.99,VALID,0,VALID,80.0118,VALID,0,VALID,24.5971,VALID,130,VALID,0.887891,
2009-08-26, 00:15:05,VALID,1000.98,VALID,0,VALID,80.0042,VALID,0,VALID,24.5599,VALID,127,VALID,1.03633,
2009-08-26, 00:16:05,VALID,1000.94,VALID,0,VALID,80.1644,VALID,0,VALID,24.519,VALID,137,VALID,0.698438,
2009-08-26, 00:17:05,VALID,1000.91,VALID,0,VALID,80.1263,VALID,0,VALID,24.519,VALID,143,VALID,0.648828,
2009-08-26, 00:18:05,VALID,1000.88,VALID,0,VALID,80.3094,VALID,0,VALID,24.48,VALID,137,VALID,0.824609,
2009-08-26, 00:19:05,VALID,1000.84,VALID,0,VALID,80.3704,VALID,0.112286,VALID,24.4604,VALID,128,VALID,0.781641,
2009-08-26, 00:20:05,VALID,1000.87,VALID,0,VALID,80.4696,VALID,0,VALID,24.4409,VALID,135,VALID,0.596484,
2009-08-26, 00:21:05,VALID,1000.86,VALID,0,VALID,80.3475,VALID,0,VALID,24.4214,VALID,142,VALID,0.708203,
2009-08-26, 00:22:05,VALID,1000.84,VALID,0,VALID,80.4162,VALID,0,VALID,24.4019,VALID,154,VALID,0.652344,
2009-08-26, 00:23:05,VALID,1000.84,VALID,0,VALID,80.4086,VALID,0,VALID,24.4019,VALID,158,VALID,0.700781,
2009-08-26, 00:24:05,VALID,1000.81,VALID,0,VALID,80.6069,VALID,0.112286,VALID,24.4019,VALID,158,VALID,0.422656,
2009-08-26, 00:25:05,VALID,1000.79,VALID,0,VALID,80.8053,VALID,0,VALID,24.3629,VALID,162,VALID,0.625391,
2009-08-26, 00:26:05,VALID,1000.8,VALID,0,VALID,80.9121,VALID,0,VALID,24.3629,VALID,162,VALID,0.496094,
2009-08-26, 00:27:05,VALID,1000.78,VALID,0,VALID,80.9655,VALID,0,VALID,24.3433,VALID,159,VALID,0.85,
2009-08-26, 00:28:05,VALID,1000.79,VALID,0,VALID,81.1868,VALID,0,VALID,24.3452,VALID,123,VALID,0.604297,
2009-08-26, 00:29:05,VALID,1000.75,VALID,0,VALID,81.0495,VALID,0.112286,VALID,24.3238,VALID,143,VALID,1.09492,
2009-08-26, 00:30:05,VALID,1000.8,VALID,0,VALID,81.08,VALID,0,VALID,24.3238,VALID,147,VALID,0.929297,
2009-08-26, 00:31:05,VALID,1000.78,VALID,0,VALID,81.2326,VALID,0,VALID,24.3043,VALID,131,VALID,0.716406,
2009-08-26, 00:32:05,VALID,1000.77,VALID,0,VALID,81.2631,VALID,0,VALID,24.3257,VALID,131,VALID,0.528516,
2009-08-26, 00:33:05,VALID,1000.77,VALID,0,VALID,81.3852,VALID,0,VALID,24.2848,VALID,131,VALID,0.324609,
2009-08-26, 00:34:05,VALID,1000.75,VALID,0,VALID,81.4843,VALID,0.112286,VALID,24.3062,VALID,131,VALID,0.324609,
2009-08-26, 00:35:05,VALID,1000.74,VALID,0,VALID,81.4233,VALID,0,VALID,24.2653,VALID,132,VALID,0.520703,
2009-08-26, 00:36:05,VALID,1000.71,VALID,0,VALID,81.3852,VALID,0.112286,VALID,24.2458,VALID,132,VALID,0.382031,
2009-08-26, 00:37:05,VALID,1000.66,VALID,0,VALID,81.4386,VALID,0.112286,VALID,24.2458,VALID,132,VALID,0.318359,
2009-08-26, 00:38:05,VALID,1000.61,VALID,0,VALID,81.492,VALID,0.112286,VALID,24.2263,VALID,132,VALID,0.178125,
2009-08-26, 00:39:05,VALID,1000.6,VALID,0,VALID,81.4538,VALID,0,VALID,24.2067,VALID,132,VALID,0.0636719,
2009-08-26, 00:40:05,VALID,1000.55,VALID,0,VALID,81.5988,VALID,0.112286,VALID,24.2086,VALID,132,VALID,0,
2009-08-26, 00:41:05,VALID,1000.53,VALID,0,VALID,81.7438,VALID,0,VALID,24.1891,VALID,132,VALID,0,
2009-08-26, 00:42:05,VALID,1000.51,VALID,0,VALID,81.8277,VALID,0,VALID,24.15,VALID,132,VALID,0,
2009-08-26, 00:43:05,VALID,1000.5,VALID,0,VALID,82.0032,VALID,0,VALID,24.111,VALID,132,VALID,0,
2009-08-26, 00:44:05,VALID,1000.47,VALID,0,VALID,82.4152,VALID,0,VALID,24.0506,VALID,132,VALID,0.0148437,
2009-08-26, 00:45:05,VALID,1000.44,VALID,0,VALID,82.5601,VALID,0.112286,VALID,23.9921,VALID,132,VALID,0,
2009-08-26, 00:46:05,VALID,1000.44,VALID,0,VALID,82.6135,VALID,0,VALID,23.9939,VALID,132,VALID,0,
2009-08-26, 00:47:05,VALID,1000.42,VALID,0,VALID,82.6135,VALID,0.112286,VALID,23.9744,VALID,132,VALID,0,
2009-08-26, 00:48:05,VALID,1000.39,VALID,0,VALID,82.7585,VALID,0,VALID,23.9354,VALID,132,VALID,0,
2009-08-26, 00:49:05,VALID,1000.38,VALID,0,VALID,83.1095,VALID,0.112286,VALID,23.875,VALID,132,VALID,0.373047,
2009-08-26, 00:50:05,VALID,1000.39,VALID,0,VALID,83.1171,VALID,0,VALID,23.8768,VALID,130,VALID,0.579687,
2009-08-26, 00:51:05,VALID,1000.39,VALID,0,VALID,82.8806,VALID,0,VALID,23.875,VALID,98,VALID,0.738281,
2009-08-26, 00:52:05,VALID,1000.38,VALID,0,VALID,83.7122,VALID,0,VALID,23.914,VALID,50,VALID,1.38516,
2009-08-26, 00:53:05,VALID,1000.38,VALID,0,VALID,84.4599,VALID,0,VALID,23.836,VALID,50,VALID,0.935547,
2009-08-26, 00:54:05,VALID,1000.38,VALID,0,VALID,85.1847,VALID,0.112286,VALID,23.7189,VALID,50,VALID,1.09063,
2009-08-26, 00:55:05,VALID,1000.36,VALID,0,VALID,85.9477,VALID,0,VALID,23.6214,VALID,50,VALID,0.744531,
2009-08-26, 00:56:05,VALID,1000.4,VALID,0,VALID,86.3063,VALID,0.112286,VALID,23.5646,VALID,50,VALID,0.834766,
2009-08-26, 00:57:05,VALID,1000.43,VALID,0,VALID,86.8174,VALID,0,VALID,23.5061,VALID,50,VALID,0.803906,
2009-08-26, 00:58:05,VALID,1000.38,VALID,0,VALID,87.3515,VALID,0,VALID,23.4458,VALID,50,VALID,0.621875,
2009-08-26, 00:59:05,VALID,1000.38,VALID,0,VALID,87.4507,VALID,0.112286,VALID,23.4067,VALID,50,VALID,0.548437,
2009-08-26, 01:00:05,VALID,1000.37,VALID,0,VALID,87.5651,VALID,0,VALID,23.3287,VALID,50,VALID,0.427344,
2009-08-26, 01:01:05,VALID,1000.35,VALID,0,VALID,87.6109,VALID,0,VALID,23.2702,VALID,50,VALID,0.375391,
2009-08-26, 01:02:05,VALID,1000.35,VALID,0,VALID,87.7101,VALID,0,VALID,23.2329,VALID,50,VALID,0.15625,
2009-08-26, 01:03:05,VALID,1000.35,VALID,0,VALID,87.8627,VALID,0,VALID,23.1726,VALID,50,VALID,0.1875,
2009-08-26, 01:04:05,VALID,1000.36,VALID,0,VALID,87.9924,VALID,0.112286,VALID,23.1531,VALID,50,VALID,0.0109375,
2009-08-26, 01:05:05,VALID,1000.35,VALID,0,VALID,88.0763,VALID,0,VALID,23.1141,VALID,50,VALID,0,
2009-08-26, 01:06:05,VALID,1000.38,VALID,0,VALID,88.1679,VALID,0,VALID,23.0946,VALID,50,VALID,0.110156,
2009-08-26, 01:07:05,VALID,1000.36,VALID,0,VALID,88.3968,VALID,0.112286,VALID,23.0946,VALID,50,VALID,0.319141,
2009-08-26, 01:08:04,VALID,1000.35,VALID,0,VALID,88.3586,VALID,0.112286,VALID,23.0946,VALID,50,VALID,0.355078,
2009-08-26, 01:09:04,VALID,1000.37,VALID,0,VALID,88.2823,VALID,0,VALID,23.1159,VALID,50,VALID,0.491406,
2009-08-26, 01:10:04,VALID,1000.37,VALID,0,VALID,88.2671,VALID,0,VALID,23.0751,VALID,49,VALID,0.507031,
2009-08-26, 01:11:04,VALID,1000.36,VALID,0,VALID,88.3586,VALID,0.112286,VALID,23.0964,VALID,49,VALID,0.561328,
2009-08-26, 01:12:04,VALID,1000.37,VALID,0,VALID,88.29,VALID,0,VALID,23.0964,VALID,48,VALID,0.565234,
2009-08-26, 01:13:04,VALID,1000.39,VALID,0,VALID,88.4044,VALID,0,VALID,23.0964,VALID,48,VALID,0.635938,
2009-08-26, 01:14:04,VALID,1000.35,VALID,0,VALID,88.412,VALID,0,VALID,23.0964,VALID,34,VALID,0.654688,
2009-08-26, 01:15:04,VALID,1000.36,VALID,0,VALID,88.5417,VALID,0,VALID,23.0946,VALID,22,VALID,0.707812,
2009-08-26, 01:16:04,VALID,1000.39,VALID,0,VALID,88.5417,VALID,0,VALID,23.1159,VALID,22,VALID,0.633594,
2009-08-26, 01:17:04,VALID,1000.38,VALID,0,VALID,88.5723,VALID,0.112286,VALID,23.0751,VALID,22,VALID,0.816016,
2009-08-26, 01:18:04,VALID,1000.38,VALID,0,VALID,88.6333,VALID,0,VALID,23.0556,VALID,23,VALID,0.923437,
2009-08-26, 01:19:04,VALID,1000.38,VALID,0,VALID,88.7935,VALID,0.112286,VALID,23.0361,VALID,23,VALID,1.15742,
2009-08-26, 01:20:04,VALID,1000.37,VALID,0,VALID,88.2442,VALID,0,VALID,23.0751,VALID,27,VALID,1.13555,
2009-08-26, 01:21:04,VALID,1000.38,VALID,0,VALID,87.733,VALID,0.112286,VALID,23.1726,VALID,41,VALID,0.930859,
2009-08-26, 01:22:04,VALID,1000.4,VALID,0,VALID,87.321,VALID,0,VALID,23.2329,VALID,39,VALID,0.945313,
2009-08-26, 01:23:04,VALID,1000.38,VALID,0,VALID,87.2066,VALID,0,VALID,23.2702,VALID,25,VALID,1.19687,
2009-08-26, 01:24:04,VALID,1000.39,VALID,0,VALID,87.1684,VALID,0,VALID,23.3092,VALID,14,VALID,0.956641,
2009-08-26, 01:25:04,VALID,1000.36,VALID,0,VALID,87.2218,VALID,0,VALID,23.3092,VALID,11,VALID,0.828516,
2009-08-26, 01:26:04,VALID,1000.39,VALID,0,VALID,87.3668,VALID,0,VALID,23.2897,VALID,11,VALID,0.626562,
2009-08-26, 01:27:04,VALID,1000.37,VALID,0,VALID,87.5499,VALID,0,VALID,23.2542,VALID,11,VALID,0.586719,
2009-08-26, 01:28:04,VALID,1000.38,VALID,0,VALID,87.6491,VALID,0,VALID,23.2152,VALID,11,VALID,0.491406,
2009-08-26, 01:29:04,VALID,1000.35,VALID,0,VALID,87.8017,VALID,0,VALID,23.1566,VALID,11,VALID,0.130469,
2009-08-26, 01:30:04,VALID,1000.35,VALID,0,VALID,87.9161,VALID,0,VALID,23.1176,VALID,11,VALID,0,
2009-08-26, 01:31:04,VALID,1000.31,VALID,0,VALID,87.9771,VALID,0,VALID,23.0981,VALID,11,VALID,0,
2009-08-26, 01:32:04,VALID,1000.27,VALID,0,VALID,88.0306,VALID,0,VALID,23.0573,VALID,11,VALID,0,
2009-08-26, 01:33:04,VALID,1000.28,VALID,0,VALID,88.1145,VALID,0,VALID,23.0396,VALID,11,VALID,0,
2009-08-26, 01:34:04,VALID,1000.27,VALID,0,VALID,88.29,VALID,0,VALID,23.0201,VALID,11,VALID,0,
2009-08-26, 01:35:04,VALID,1000.28,VALID,0,VALID,88.4349,VALID,0,VALID,23.0396,VALID,11,VALID,0,
2009-08-26, 01:36:04,VALID,1000.28,VALID,0,VALID,88.5265,VALID,0,VALID,23.0591,VALID,11,VALID,0,
2009-08-26, 01:37:04,VALID,1000.26,VALID,0,VALID,88.5341,VALID,0,VALID,23.0378,VALID,11,VALID,0,
2009-08-26, 01:38:04,VALID,1000.26,VALID,0,VALID,88.4502,VALID,0,VALID,23.0573,VALID,11,VALID,0,
2009-08-26, 01:39:04,VALID,1000.27,VALID,0,VALID,88.3968,VALID,0,VALID,23.0769,VALID,11,VALID,0,
2009-08-26, 01:40:04,VALID,1000.23,VALID,0,VALID,88.3357,VALID,0,VALID,23.0964,VALID,11,VALID,0.34375,
2009-08-26, 01:41:04,VALID,1000.25,VALID,0,VALID,88.1908,VALID,0,VALID,23.0964,VALID,11,VALID,0.581641,
2009-08-26, 01:42:04,VALID,1000.22,VALID,0,VALID,88.1297,VALID,0,VALID,23.1549,VALID,11,VALID,0.583594,
2009-08-26, 01:43:04,VALID,1000.18,VALID,0,VALID,87.9161,VALID,0,VALID,23.1939,VALID,181,VALID,0.799219,
2009-08-26, 01:44:04,VALID,1000.19,VALID,0,VALID,87.5575,VALID,0,VALID,23.2915,VALID,168,VALID,0.800391,
2009-08-26, 01:45:04,VALID,1000.21,VALID,0,VALID,86.9548,VALID,0,VALID,23.3287,VALID,162,VALID,0.701563,
2009-08-26, 01:46:04,VALID,1000.23,VALID,0,VALID,86.3826,VALID,0,VALID,23.4067,VALID,161,VALID,0.652734,
2009-08-26, 01:47:04,VALID,1000.25,VALID,0,VALID,86.0545,VALID,0,VALID,23.4458,VALID,155,VALID,0.785156,
2009-08-26, 01:48:04,VALID,1000.26,VALID,0,VALID,86.0087,VALID,0,VALID,23.5061,VALID,155,VALID,0.771094,
2009-08-26, 01:49:04,VALID,1000.27,VALID,0,VALID,85.9019,VALID,0,VALID,23.5043,VALID,155,VALID,0.660156,
2009-08-26, 01:50:04,VALID,1000.31,VALID,0,VALID,85.528,VALID,0,VALID,23.5256,VALID,155,VALID,0.516016,
2009-08-26, 01:51:04,VALID,1000.3,VALID,0,VALID,85.4594,VALID,0,VALID,23.5451,VALID,155,VALID,0.489062,
2009-08-26, 01:52:04,VALID,1000.32,VALID,0,VALID,85.3983,VALID,0,VALID,23.5238,VALID,155,VALID,0.511719,
2009-08-26, 01:53:04,VALID,1000.35,VALID,0,VALID,85.2915,VALID,0,VALID,23.5646,VALID,155,VALID,0.553516,
2009-08-26, 01:54:04,VALID,1000.35,VALID,0,VALID,85.0703,VALID,0,VALID,23.5646,VALID,155,VALID,0.669141,
2009-08-26, 01:55:04,VALID,1000.3,VALID,0,VALID,84.8337,VALID,0,VALID,23.5841,VALID,155,VALID,0.607422,
2009-08-26, 01:56:04,VALID,1000.29,VALID,0,VALID,84.6964,VALID,0,VALID,23.5628,VALID,155,VALID,0.552734,
2009-08-26, 01:57:04,VALID,1000.33,VALID,0,VALID,84.6583,VALID,0,VALID,23.5664,VALID,155,VALID,0.339453,
2009-08-26, 01:58:04,VALID,1000.32,VALID,0,VALID,84.6354,VALID,0,VALID,23.5664,VALID,155,VALID,0.311719,
2009-08-26, 01:59:04,VALID,1000.33,VALID,0,VALID,84.6583,VALID,0,VALID,23.5256,VALID,155,VALID,0.325391,
2009-08-26, 02:00:04,VALID,1000.33,VALID,0,VALID,84.704,VALID,0,VALID,23.5469,VALID,172,VALID,0.699219,
2009-08-26, 02:01:04,VALID,1000.38,VALID,0,VALID,84.4294,VALID,0,VALID,23.5256,VALID,178,VALID,0.927344,
2009-08-26, 02:02:04,VALID,1000.36,VALID,0,VALID,84.231,VALID,0,VALID,23.5859,VALID,184,VALID,0.601563,
2009-08-26, 02:03:04,VALID,1000.38,VALID,0,VALID,83.88,VALID,0,VALID,23.6036,VALID,193,VALID,0.482812,
2009-08-26, 02:04:04,VALID,1000.37,VALID,0,VALID,83.5672,VALID,0,VALID,23.664,VALID,203,VALID,0.620313,
2009-08-26, 02:05:04,VALID,1000.38,VALID,0,VALID,83.4528,VALID,0,VALID,23.6622,VALID,208,VALID,0.334766,
2009-08-26, 02:06:04,VALID,1000.41,VALID,0,VALID,83.7885,VALID,0,VALID,23.6622,VALID,217,VALID,0.464063,
2009-08-26, 02:07:04,VALID,1000.44,VALID,0,VALID,84.1166,VALID,0,VALID,23.6036,VALID,238,VALID,0.497266,
2009-08-26, 02:08:04,VALID,1000.41,VALID,0,VALID,84.3607,VALID,0,VALID,23.5664,VALID,246,VALID,0.644922,
2009-08-26, 02:09:04,VALID,1000.41,VALID,0,VALID,84.3836,VALID,0,VALID,23.5256,VALID,241,VALID,0.955078,
2009-08-26, 02:10:04,VALID,1000.43,VALID,0,VALID,84.4523,VALID,0,VALID,23.5451,VALID,236,VALID,0.742969,
2009-08-26, 02:11:04,VALID,1000.45,VALID,0,VALID,84.4523,VALID,0,VALID,23.5664,VALID,228,VALID,0.840234,
2009-08-26, 02:12:04,VALID,1000.48,VALID,0,VALID,84.3226,VALID,0,VALID,23.5469,VALID,221,VALID,0.921484,
2009-08-26, 02:13:04,VALID,1000.49,VALID,0,VALID,84.2081,VALID,0,VALID,23.5451,VALID,227,VALID,1.00937,
2009-08-26, 02:14:04,VALID,1000.5,VALID,0,VALID,84.0479,VALID,0,VALID,23.5646,VALID,227,VALID,1.06719,
2009-08-26, 02:15:04,VALID,1000.49,VALID,0,VALID,83.7198,VALID,0,VALID,23.6036,VALID,214,VALID,0.976953,
2009-08-26, 02:16:04,VALID,1000.49,VALID,0,VALID,83.5367,VALID,0,VALID,23.6835,VALID,213,VALID,0.710156,
2009-08-26, 02:17:04,VALID,1000.51,VALID,0,VALID,82.9492,VALID,0,VALID,23.7225,VALID,220,VALID,1.24375,
2009-08-26, 02:18:04,VALID,1000.5,VALID,0,VALID,82.4457,VALID,0,VALID,23.7811,VALID,216,VALID,1.18086,
2009-08-26, 02:19:04,VALID,1000.53,VALID,0,VALID,82.3312,VALID,0,VALID,23.8396,VALID,225,VALID,1.29648,
2009-08-26, 02:20:04,VALID,1000.5,VALID,0,VALID,82.2168,VALID,0,VALID,23.8396,VALID,220,VALID,1.17813,
2009-08-26, 02:21:04,VALID,1000.51,VALID,0,VALID,81.9803,VALID,0,VALID,23.8591,VALID,202,VALID,1.34687,
2009-08-26, 02:22:04,VALID,1000.51,VALID,0,VALID,81.965,VALID,0,VALID,23.8786,VALID,234,VALID,1.04844,
2009-08-26, 02:23:04,VALID,1000.51,VALID,0,VALID,82.0871,VALID,0,VALID,23.8786,VALID,226,VALID,0.942187,
2009-08-26, 02:24:04,VALID,1000.49,VALID,0,VALID,82.11,VALID,0,VALID,23.8786,VALID,197,VALID,1.22578,
2009-08-26, 02:25:04,VALID,1000.48,VALID,0,VALID,82.3083,VALID,0,VALID,23.8378,VALID,216,VALID,1.01719,
2009-08-26, 02:26:04,VALID,1000.45,VALID,0,VALID,82.0032,VALID,0,VALID,23.8396,VALID,197,VALID,1.16641,
2009-08-26, 02:27:04,VALID,1000.46,VALID,0,VALID,81.6827,VALID,0,VALID,23.8183,VALID,199,VALID,1.42617,
2009-08-26, 02:28:04,VALID,1000.44,VALID,0,VALID,81.8963,VALID,0,VALID,23.8378,VALID,182,VALID,0.892578,
2009-08-26, 02:29:04,VALID,1000.47,VALID,0,VALID,82.3465,VALID,0,VALID,23.8591,VALID,157,VALID,1.40977,
2009-08-26, 02:30:04,VALID,1000.48,VALID,0,VALID,83.0484,VALID,0,VALID,23.8183,VALID,154,VALID,1.37383,
2009-08-26, 02:31:04,VALID,1000.48,VALID,0,VALID,83.0103,VALID,0,VALID,23.7811,VALID,170,VALID,1.30625,
2009-08-26, 02:32:04,VALID,1000.47,VALID,0,VALID,83.1323,VALID,0,VALID,23.7616,VALID,143,VALID,1.12578,
2009-08-26, 02:33:04,VALID,1000.45,VALID,0,VALID,83.3612,VALID,0,VALID,23.6817,VALID,142,VALID,1.05156,
2009-08-26, 02:34:04,VALID,1000.44,VALID,0,VALID,83.6283,VALID,0,VALID,23.6427,VALID,139,VALID,0.990234,
2009-08-26, 02:35:04,VALID,1000.45,VALID,0,VALID,83.88,VALID,0,VALID,23.6054,VALID,134,VALID,0.977734,
2009-08-26, 02:36:04,VALID,1000.44,VALID,0,VALID,84.1852,VALID,0,VALID,23.5469,VALID,133,VALID,0.584375,
2009-08-26, 02:37:04,VALID,1000.4,VALID,0,VALID,84.5057,VALID,0,VALID,23.5079,VALID,123,VALID,1.00742,
2009-08-26, 02:38:04,VALID,1000.37,VALID,0,VALID,84.643,VALID,0,VALID,23.4866,VALID,121,VALID,0.996484,
2009-08-26, 02:39:04,VALID,1000.39,VALID,0,VALID,84.437,VALID,0,VALID,23.4688,VALID,125,VALID,0.973047,
2009-08-26, 02:40:04,VALID,1000.37,VALID,0,VALID,84.437,VALID,0,VALID,23.5061,VALID,127,VALID,0.656641,
2009-08-26, 02:41:04,VALID,1000.37,VALID,0,VALID,84.1166,VALID,0,VALID,23.5256,VALID,126,VALID,0.832812,
2009-08-26, 02:42:04,VALID,1000.36,VALID,0,VALID,83.4452,VALID,0,VALID,23.5451,VALID,126,VALID,0.947656,
2009-08-26, 02:43:04,VALID,1000.34,VALID,0,VALID,82.7661,VALID,0,VALID,23.5841,VALID,135,VALID,1.24375,
2009-08-26, 02:44:04,VALID,1000.36,VALID,0,VALID,81.6674,VALID,0,VALID,23.6817,VALID,143,VALID,1.31641,
2009-08-26, 02:45:04,VALID,1000.38,VALID,0,VALID,81.3394,VALID,0,VALID,23.7793,VALID,144,VALID,1.15625,
2009-08-26, 02:46:04,VALID,1000.36,VALID,0,VALID,81.1792,VALID,0,VALID,23.8591,VALID,144,VALID,0.991406,
2009-08-26, 02:47:04,VALID,1000.36,VALID,0,VALID,81.4691,VALID,0,VALID,23.8963,VALID,141,VALID,0.782812,
2009-08-26, 02:48:04,VALID,1000.35,VALID,0,VALID,81.5378,VALID,0,VALID,23.9159,VALID,140,VALID,0.845703,
2009-08-26, 02:49:04,VALID,1000.36,VALID,0,VALID,81.2936,VALID,0,VALID,23.8963,VALID,139,VALID,0.845703,
2009-08-26, 02:50:04,VALID,1000.35,VALID,0,VALID,81.6293,VALID,0,VALID,23.9177,VALID,137,VALID,0.828125,
2009-08-26, 02:51:04,VALID,1000.33,VALID,0,VALID,81.8887,VALID,0,VALID,23.8768,VALID,136,VALID,0.699219,
2009-08-26, 02:52:04,VALID,1000.4,VALID,0,VALID,81.9879,VALID,0,VALID,23.8768,VALID,139,VALID,0.978906,
2009-08-26, 02:53:04,VALID,1000.39,VALID,0,VALID,82.1481,VALID,0,VALID,23.8786,VALID,136,VALID,0.662891,
2009-08-26, 02:54:04,VALID,1000.38,VALID,0,VALID,82.4304,VALID,0,VALID,23.8378,VALID,135,VALID,0.499219,
2009-08-26, 02:55:04,VALID,1000.39,VALID,0,VALID,82.644,VALID,0,VALID,23.8591,VALID,135,VALID,0.391016,
2009-08-26, 02:56:04,VALID,1000.39,VALID,0,VALID,82.8119,VALID,0,VALID,23.8183,VALID,133,VALID,0.424219,
2009-08-26, 02:57:04,VALID,1000.4,VALID,0,VALID,82.8653,VALID,0,VALID,23.797,VALID,117,VALID,0.827734,
2009-08-26, 02:58:04,VALID,1000.41,VALID,0,VALID,82.9798,VALID,0,VALID,23.7775,VALID,116,VALID,0.608594,
2009-08-26, 02:59:04,VALID,1000.4,VALID,0,VALID,83.0637,VALID,0,VALID,23.7793,VALID,112,VALID,0.525391,
2009-08-26, 03:00:04,VALID,1000.39,VALID,0,VALID,82.9111,VALID,0,VALID,23.7579,VALID,102,VALID,0.659766,
2009-08-26, 03:01:04,VALID,1000.35,VALID,0,VALID,83.0103,VALID,0,VALID,23.7384,VALID,115,VALID,0.683594,
2009-08-26, 03:02:04,VALID,1000.35,VALID,0,VALID,82.7509,VALID,0,VALID,23.7597,VALID,117,VALID,0.865625,
2009-08-26, 03:03:04,VALID,1000.4,VALID,0,VALID,82.6059,VALID,0,VALID,23.7402,VALID,127,VALID,1.03984,
2009-08-26, 03:04:04,VALID,1000.38,VALID,0,VALID,82.5906,VALID,0,VALID,23.7402,VALID,119,VALID,0.960547,
2009-08-26, 03:05:04,VALID,1000.38,VALID,0,VALID,82.5372,VALID,0,VALID,23.7189,VALID,125,VALID,0.475391,
2009-08-26, 03:06:04,VALID,1000.37,VALID,0,VALID,82.6212,VALID,0,VALID,23.7402,VALID,125,VALID,0,
2009-08-26, 03:07:04,VALID,1000.38,VALID,0,VALID,82.316,VALID,0,VALID,23.6994,VALID,144,VALID,0.767187,
2009-08-26, 03:08:04,VALID,1000.39,VALID,0,VALID,82.6059,VALID,0,VALID,23.7384,VALID,155,VALID,0.536328,
2009-08-26, 03:09:04,VALID,1000.37,VALID,0,VALID,83.1934,VALID,0,VALID,23.7597,VALID,154,VALID,0.126172,
2009-08-26, 03:10:04,VALID,1000.38,VALID,0,VALID,83.6283,VALID,0,VALID,23.7597,VALID,158,VALID,0.15625,
2009-08-26, 03:11:04,VALID,1000.39,VALID,0,VALID,83.8953,VALID,0,VALID,23.7189,VALID,158,VALID,0,
2009-08-26, 03:12:04,VALID,1000.36,VALID,0,VALID,84.3683,VALID,0,VALID,23.703,VALID,158,VALID,0,
2009-08-26, 03:13:04,VALID,1000.37,VALID,0,VALID,84.582,VALID,0,VALID,23.6427,VALID,159,VALID,0.168359,
2009-08-26, 03:14:04,VALID,1000.34,VALID,0,VALID,84.9711,VALID,0,VALID,23.6445,VALID,159,VALID,0.280859,
2009-08-26, 03:15:04,VALID,1000.32,VALID,0,VALID,85.2915,VALID,0,VALID,23.6054,VALID,159,VALID,0.377344,
2009-08-26, 03:16:04,VALID,1000.37,VALID,0,VALID,85.7798,VALID,0,VALID,23.5451,VALID,159,VALID,0.371875,
2009-08-26, 03:17:04,VALID,1000.33,VALID,0,VALID,85.879,VALID,0,VALID,23.5079,VALID,159,VALID,0.461719,
2009-08-26, 03:18:04,VALID,1000.33,VALID,0,VALID,86.0697,VALID,0,VALID,23.4688,VALID,159,VALID,0.376563,
2009-08-26, 03:19:04,VALID,1000.32,VALID,0,VALID,86.2681,VALID,0,VALID,23.4493,VALID,159,VALID,0.283984,
2009-08-26, 03:20:04,VALID,1000.36,VALID,0,VALID,86.3215,VALID,0,VALID,23.4103,VALID,159,VALID,0.206641,
2009-08-26, 03:21:04,VALID,1000.36,VALID,0,VALID,86.4054,VALID,0,VALID,23.3908,VALID,159,VALID,0.115234,
2009-08-26, 03:22:04,VALID,1000.37,VALID,0,VALID,86.6038,VALID,0,VALID,23.3695,VALID,159,VALID,0.220313,
2009-08-26, 03:23:04,VALID,1000.37,VALID,0,VALID,86.436,VALID,0,VALID,23.3305,VALID,159,VALID,0.230469,
2009-08-26, 03:24:04,VALID,1000.36,VALID,0,VALID,86.7717,VALID,0,VALID,23.3305,VALID,159,VALID,0.105859,
2009-08-26, 03:25:04,VALID,1000.35,VALID,0,VALID,86.909,VALID,0,VALID,23.3518,VALID,159,VALID,0.217969,
2009-08-26, 03:26:04,VALID,1000.33,VALID,0,VALID,86.7335,VALID,0,VALID,23.3127,VALID,159,VALID,0.426172,
2009-08-26, 03:27:04,VALID,1000.33,VALID,0,VALID,86.642,VALID,0,VALID,23.2737,VALID,159,VALID,0.325,
2009-08-26, 03:28:04,VALID,1000.31,VALID,0,VALID,86.703,VALID,0,VALID,23.2719,VALID,159,VALID,0.352344,
2009-08-26, 03:29:04,VALID,1000.32,VALID,0,VALID,86.7946,VALID,0,VALID,23.2932,VALID,148,VALID,0.442969,
2009-08-26, 03:30:04,VALID,1000.27,VALID,0,VALID,86.7869,VALID,0,VALID,23.2915,VALID,115,VALID,0.437109,
2009-08-26, 03:31:04,VALID,1000.29,VALID,0,VALID,86.8709,VALID,0,VALID,23.2915,VALID,115,VALID,0.45625,
2009-08-26, 03:32:04,VALID,1000.29,VALID,0,VALID,86.3673,VALID,0,VALID,23.3127,VALID,97,VALID,0.673437,
2009-08-26, 03:33:04,VALID,1000.27,VALID,0,VALID,86.2452,VALID,0,VALID,23.311,VALID,95,VALID,0.544531,
2009-08-26, 03:34:04,VALID,1000.28,VALID,0,VALID,86.0316,VALID,0,VALID,23.311,VALID,95,VALID,0.61875,
2009-08-26, 03:35:04,VALID,1000.29,VALID,0,VALID,85.8485,VALID,0,VALID,23.3695,VALID,71,VALID,0.622266,
2009-08-26, 03:36:04,VALID,1000.27,VALID,0,VALID,85.9172,VALID,0,VALID,23.4103,VALID,71,VALID,0.633594,
2009-08-26, 03:37:04,VALID,1000.25,VALID,0,VALID,85.9934,VALID,0,VALID,23.4493,VALID,68,VALID,0.644922,
2009-08-26, 03:38:04,VALID,1000.27,VALID,0,VALID,86.0621,VALID,0,VALID,23.4493,VALID,63,VALID,0.594531,
2009-08-26, 03:39:04,VALID,1000.26,VALID,0,VALID,86.3902,VALID,0,VALID,23.428,VALID,53,VALID,0.726172,
2009-08-26, 03:40:04,VALID,1000.25,VALID,0,VALID,86.8327,VALID,0,VALID,23.428,VALID,46,VALID,0.742578,
2009-08-26, 03:41:04,VALID,1000.26,VALID,0,VALID,87.0234,VALID,0,VALID,23.4298,VALID,31,VALID,0.834766,
2009-08-26, 03:42:04,VALID,1000.24,VALID,0,VALID,87.0463,VALID,0,VALID,23.3908,VALID,24,VALID,0.877344,
2009-08-26, 03:43:04,VALID,1000.24,VALID,0,VALID,87.3515,VALID,0,VALID,23.3713,VALID,24,VALID,0.752734,
2009-08-26, 03:44:04,VALID,1000.25,VALID,0,VALID,87.4812,VALID,0,VALID,23.3518,VALID,24,VALID,0.693359,
2009-08-26, 03:45:04,VALID,1000.27,VALID,0,VALID,87.6949,VALID,0,VALID,23.3127,VALID,24,VALID,0.389453,